Location: Arlington
(40.6323°N, 74.1651°W)
Time: 21:26:14
(UTC+00:00)

NOAA 11 - Pass Details

Date: 28 February 2020
Orbit: 834 x 849 km, 98.4° (Epoch: 09 April)

Event Time Altitude Azimuth Distance (km) Brightness Sun altitude
Rises 00:46:43 0° 206° (SSW) 3,377 7.5 -23.7°
Reaches altitude 10° 00:49:47 10° 225° (SW) 2,446 7.0 -24.3°
Maximum altitude 00:53:30 19° 268° (W) 1,909 6.8 -25.0°
Drops below altitude 10° 00:57:14 10° 312° (NW) 2,452 7.4 -25.7°
Sets 01:00:21 0° 330° (NNW) 3,390 7.9 -26.3°
